GW4588 Weather Reports


time (UTC)temp
C
wind
direction
speed
KPH
gust
KPH
rain 1hr
cm
rain 24hr
cm
rain mn
cm
humidity
%
barometer
mb
20260507074049 5 301 4.8 6.4 0.00 0.00 0.00 99 1008.4
20260507073544 5 313 4.8 6.4 0.00 0.00 0.00 99 1008.3
20260507073041 5 295 6.4 14.5 0.00 0.00 0.00 99 1008.4
20260507072538 5 254 4.8 4.8 0.00 0.00 0.00 99 1008.3
20260507072036 5 284 3.2 6.4 0.00 0.00 0.00 99 1008.0
20260507071533 5 274 1.6 6.4 0.00 0.00 0.00 99 1008.2
20260507071029 5 290 1.6 6.4 0.00 0.00 0.00 99 1008.3
20260507070526 5 305 3.2 6.4 0.00 0.00 0.00 99 1008.1
20260507070024 5 333 3.2 4.8 0.00 0.00 0.00 99 1007.8
20260507065520 5 212 4.8 6.4 0.00 0.00 0.00 99 1008.0
20260507065017 5 255 0.0 4.8 0.00 0.00 0.00 99 1007.8
20260507064515 5 301 4.8 8.0 0.00 0.00 0.00 99 1008.0
20260507064013 5 288 4.8 6.4 0.00 0.00 0.00 99 1008.0
20260507063510 5 143 0.0 8.0 0.00 0.00 0.00 99 1008.0
20260507063007 5 293 0.0 4.8 0.00 0.00 0.00 99 1007.8
20260507062504 5 297 0.0 3.2 0.00 0.00 0.00 99 1007.8
20260507062001 5 220 0.0 4.8 0.00 0.00 0.00 99 1007.8
20260507061459 5 299 0.0 8.0 0.00 0.00 0.00 99 1008.1
20260507060957 5 304 4.8 4.8 0.00 0.00 0.00 99 1007.8
20260507060454 5 10 3.2 6.4 0.00 0.00 0.00 99 1007.8
20260507055950 6 316 1.6 4.8 0.00 0.00 0.00 99 1007.8
20260507055445 6 199 0.0 4.8 0.00 0.00 0.00 99 1008.0
20260507054943 6 293 1.6 3.2 0.00 0.00 0.00 99 1008.2
20260507054439 6 22 0.0 1.6 0.00 0.00 0.00 99 1008.5
20260507053936 6 311 0.0 3.2 0.00 0.00 0.00 99 1008.4
20260507053433 6 286 0.0 1.6 0.00 0.00 0.00 99 1008.4
20260507052932 6 55 1.6 3.2 0.00 0.00 0.00 99 1008.1
20260507052429 6 40 1.6 1.6 0.00 0.00 0.00 99 1008.8
20260507051926 6 230 0.0 1.6 0.00 0.00 0.00 99 1009.0
20260507051424 6 13 0.0 3.2 0.00 0.00 0.00 99 1009.0
20260507050920 6 356 0.0 1.6 0.00 0.00 0.00 99 1009.0
20260507050417 6 126 0.0 3.2 0.00 0.00 0.00 99 1008.9
20260507045914 6 296 0.0 3.2 0.00 0.00 0.00 99 1009.0
20260507045410 6 17 0.0 3.2 0.00 0.00 0.00 99 1008.9
20260507044908 6 352 0.0 1.6 0.00 0.00 0.00 99 1008.8
20260507044404 6 336 0.0 3.2 0.00 0.00 0.00 99 1008.9
20260507043901 6 44 0.0 3.2 0.00 0.00 0.00 99 1008.7
20260507043357 6 154 0.0 1.6 0.00 0.00 0.00 99 1008.7
20260507042853 6 145 0.0 4.8 0.00 0.00 0.00 99 1008.4
20260507042350 6 104 3.2 4.8 0.00 0.00 0.00 99 1008.4
20260507041846 6 29 0.0 4.8 0.00 0.00 0.00 99 1008.6
20260507041343 6 94 0.0 8.0 0.00 0.00 0.00 99 1008.4
20260507040840 6 66 0.0 4.8 0.00 0.00 0.00 99 1007.7
20260507040336 7 346 0.0 3.2 0.00 0.00 0.00 99 1008.2
20260507035832 7 39 0.0 3.2 0.00 2.26 2.26 99 1008.3
20260507035327 7 336 0.0 1.6 0.00 2.26 2.26 99 1008.4
20260507034826 7 303 0.0 3.2 0.00 2.26 2.26 99 1008.5
20260507034322 7 345 0.0 3.2 0.00 2.26 2.26 99 1008.6
20260507033820 7 160 0.0 3.2 0.00 2.26 2.26 99 1008.6
20260507033318 7 315 0.0 4.8 0.00 2.26 2.26 99 1008.7
20260507032815 7 36 1.6 4.8 0.00 2.26 2.26 99 1008.5
20260507032311 7 60 0.0 0.0 0.00 2.26 2.26 99 1008.7
20260507031808 7 5 0.0 1.6 0.00 2.26 2.26 99 1008.6
20260507031304 7 277 0.0 1.6 0.00 2.26 2.26 99 1008.6
20260507030801 7 6 0.0 0.0 0.00 2.26 2.26 99 1008.4
20260507030259 7 6 0.0 1.6 0.00 2.26 2.26 99 1008.5
20260507025756 7 37 1.6 1.6 0.00 2.26 2.26 99 1008.5
20260507025253 7 94 0.0 3.2 0.00 2.26 2.26 99 1008.5
20260507024751 7 49 0.0 1.6 0.00 2.26 2.26 99 1008.7
20260507024248 7 105 0.0 1.6 0.00 2.26 2.26 99 1008.4
20260507023743 7 131 0.0 3.2 0.05 2.26 2.26 99 1008.6
20260507023240 7 84 3.2 4.8 0.05 2.26 2.26 99 1008.3
20260507022737 7 354 0.0 1.6 0.00 2.26 2.26 99 1008.3
20260507022233 7 27 1.6 8.0 0.00 2.26 2.26 99 1008.0
20260507021730 7 135 0.0 4.8 0.00 2.26 2.26 99 1008.3
20260507021225 7 272 8.0 9.7 0.00 2.26 2.26 99 1008.3
20260507020724 7 65 3.2 6.4 0.05 2.26 2.26 99 1008.4
20260507020220 7 72 0.0 6.4 0.05 2.24 2.24 99 1008.1
20260507015718 7 306 8.0 9.7 0.13 2.24 2.24 99 1008.2
20260507015215 7 267 3.2 6.4 0.36 2.24 2.24 99 1008.1
20260507014711 7 199 0.0 4.8 0.61 2.21 2.21 99 1008.2
20260507014208 8 319 0.0 8.0 0.30 2.16 2.16 99 1008.0
20260507013704 8 261 3.2 11.3 0.00 2.11 2.11 99 1008.1
20260507013202 8 214 8.0 12.9 0.00 2.11 2.11 99 1008.1
20260507012659 8 285 3.2 9.7 0.00 2.11 2.11 99 1008.1
20260507012154 8 313 1.6 6.4 0.00 2.11 2.11 99 1007.6
20260507011653 8 193 3.2 9.7 0.00 2.11 2.11 99 1008.0
20260507011148 8 223 1.6 8.0 0.00 2.11 2.11 99 1007.5
20260507010643 8 196 6.4 9.7 0.00 2.11 2.11 99 1007.2
20260507010139 9 256 3.2 8.0 0.00 2.11 2.11 99 1007.3
20260507005637 9 337 3.2 22.5 0.00 2.11 2.11 99 1006.9
20260507005133 9 314 3.2 9.7 0.00 2.11 2.11 99 1007.1
20260507004630 10 313 3.2 11.3 0.00 2.11 2.11 99 1007.3
20260507004128 10 243 4.8 8.0 0.00 2.11 2.11 99 1007.2
20260507003624 10 203 3.2 4.8 0.05 2.11 2.11 99 1007.2
20260507003119 10 253 8.0 17.7 0.05 2.11 2.11 99 1006.9
20260507002615 10 243 4.8 6.4 0.00 2.11 2.11 99 1006.9
20260507002111 10 300 4.8 8.0 0.05 2.11 2.11 99 1007.1
20260507001608 10 292 8.0 11.3 0.23 2.11 2.11 99 1007.0
20260507001106 10 322 4.8 9.7 0.18 2.06 2.06 99 1006.9
20260507000601 10 275 3.2 8.0 0.18 2.06 2.06 99 1006.9
20260507000052 11 292 6.4 8.0 0.13 2.03 2.03 99 1006.8
20260506235549 11 299 4.8 11.3 0.18 2.03 2.03 99 1006.8
20260506235045 11 283 0.0 6.4 0.43 2.03 2.03 99 1006.6
20260506234542 11 277 4.8 9.7 0.36 1.98 1.98 99 1006.6
20260506234039 11 293 0.0 8.0 0.36 1.96 1.96 99 1006.5
20260506233536 12 226 4.8 17.7 1.27 1.91 1.91 99 1006.2
20260506233033 12 277 3.2 4.8 0.79 1.83 1.83 99 1006.2
20260506232529 12 232 3.2 8.0 0.23 1.70 1.70 99 1005.6
20260506232024 12 206 3.2 4.8 0.30 1.70 1.70 99 1005.5
20260506231522 12 310 0.0 4.8 0.13 1.65 1.65 99 1005.5
20260506231020 12 208 3.2 8.0 0.05 1.65 1.65 99 1005.6
20260506230516 12 248 3.2 11.3 0.00 1.63 1.63 99 1005.6
20260506230014 12 237 4.8 6.4 0.00 1.63 1.63 99 1005.6
20260506225510 12 135 0.0 3.2 0.00 1.63 1.63 99 1005.5
20260506225006 12 216 3.2 4.8 0.05 1.63 1.63 99 1005.5
20260506224503 12 246 0.0 4.8 0.05 1.63 1.63 99 1005.7
20260506224000 12 238 0.0 6.4 0.00 1.63 1.63 99 1005.7
20260506223456 12 228 0.0 3.2 0.00 1.63 1.63 99 1005.7
20260506222953 12 205 4.8 6.4 0.00 1.63 1.63 99 1005.6
20260506222449 12 261 3.2 8.0 0.00 1.63 1.63 99 1005.7
20260506221946 12 244 0.0 9.7 0.00 1.63 1.63 99 1005.7
20260506221443 12 250 4.8 6.4 0.00 1.63 1.63 99 1005.6
20260506220936 12 253 3.2 4.8 0.05 1.63 1.63 99 1005.6
20260506220431 12 274 3.2 6.4 0.18 1.63 1.63 99 1005.6
20260506215928 12 215 1.6 6.4 0.18 1.60 1.60 99 1005.6
20260506215424 12 238 4.8 9.7 0.13 1.60 1.60 99 1005.7
20260506214920 12 269 0.0 8.0 0.13 1.57 1.57 99 1005.8
20260506214417 12 284 3.2 8.0 0.00 1.55 1.55 99 1005.6
20260506213915 12 274 3.2 8.0 0.00 1.55 1.55 99 1005.6
20260506213412 12 258 4.8 6.4 0.05 1.55 1.55 99 1005.6
20260506212910 12 198 3.2 11.3 0.05 1.55 1.55 99 1005.5
20260506212405 12 235 1.6 11.3 0.00 1.55 1.55 99 1005.6
20260506211900 12 246 6.4 11.3 0.00 1.55 1.55 99 1005.5
20260506211357 12 275 0.0 4.8 0.00 1.55 1.55 99 1005.5
20260506210854 13 225 4.8 8.0 0.00 1.55 1.55 99 1005.4
20260506210350 12 152 3.2 4.8 0.00 1.55 1.55 99 1005.5
20260506205848 12 199 3.2 9.7 0.00 1.55 1.55 99 1005.4
20260506205344 12 219 3.2 11.3 0.00 1.55 1.55 99 1005.5
20260506204840 12 240 3.2 9.7 0.05 1.55 1.55 99 1005.4
20260506204338 13 269 0.0 8.0 0.05 1.55 1.55 99 1005.5
20260506203835 13 222 4.8 8.0 0.05 1.55 1.55 99 1005.4
20260506203332 13 208 3.2 4.8 0.18 1.52 1.52 99 1005.7
20260506202829 13 239 4.8 8.0 0.23 1.52 1.52 99 1005.7
20260506202326 13 203 6.4 11.3 0.36 1.50 1.50 99 1006.0
20260506201823 13 240 4.8 11.3 0.23 1.47 1.47 99 1005.8
20260506201320 13 249 4.8 8.0 0.13 1.45 1.45 99 1005.7
20260506200817 13 290 3.2 12.9 0.23 1.42 1.42 99 1006.0
20260506200313 13 245 3.2 12.9 0.13 1.42 1.42 99 1006.0
20260506195809 13 236 3.2 4.8 0.13 1.40 1.40 99 1006.1
20260506195306 13 239 9.7 11.3 0.23 1.40 1.40 99 1006.3
20260506194804 13 244 4.8 12.9 0.23 1.37 1.37 99 1006.2
20260506194300 13 219 4.8 4.8 0.61 1.35 1.35 99 1006.4
20260506193758 13 122 3.2 9.7 0.61 1.32 1.32 99 1006.4
20260506193254 13 71 3.2 12.9 0.43 1.24 1.24 99 1006.3
20260506192750 13 209 4.8 6.4 0.43 1.19 1.19 99 1006.5
20260506192248 13 233 6.4 14.5 0.36 1.17 1.17 99 1006.6
20260506191744 13 224 4.8 12.9 0.36 1.14 1.14 99 1006.7
20260506191240 13 275 6.4 11.3 0.30 1.09 1.09 99 1006.7
20260506190738 13 236 3.2 8.0 0.43 1.07 1.07 99 1006.7
20260506190234 13 203 6.4 14.5 0.71 1.02 1.02 99 1006.8
20260506185731 13 248 4.8 6.4 1.55 0.97 0.97 99 1006.8
20260506185228 13 241 6.4 11.3 1.32 0.89 0.89 99 1006.7
20260506184725 13 214 3.2 24.1 0.43 0.71 0.71 99 1006.8
20260506184222 13 237 4.8 20.9 0.30 0.66 0.66 99 1006.7
20260506183719 13 282 3.2 14.5 0.23 0.61 0.61 99 1006.5
20260506183215 13 273 3.2 14.5 0.30 0.61 0.61 99 1006.4
20260506182712 13 321 3.2 8.0 0.36 0.58 0.58 99 1006.8
20260506182209 13 229 3.2 9.7 0.43 0.56 0.56 99 1006.9
20260506181707 13 202 6.4 14.5 0.61 0.51 0.51 99 1006.7
20260506181204 13 249 3.2 8.0 0.61 0.46 0.46 99 1006.9
20260506180701 13 225 4.8 17.7 0.79 0.41 0.41 99 1007.1
20260506180157 13 232 11.3 19.3 0.79 0.36 0.36 99 1007.0
20260506175654 13 244 1.6 8.0 0.53 0.25 0.25 99 1007.3
20260506175150 13 256 3.2 8.0 0.61 0.23 0.23 99 1007.4
20260506174643 13 203 1.6 8.0 0.43 0.15 0.15 99 1007.4
20260506174139 13 247 4.8 6.4 0.61 0.10 0.10 99 1007.6
20260506173637 13 229 4.8 6.4 0.30 0.05 0.05 99 1007.7
20260506173134 13 231 3.2 4.8 0.00 0.00 0.00 99 1007.6
20260506172631 13 262 3.2 9.7 0.00 0.00 0.00 99 1007.8
20260506172127 13 241 1.6 6.4 0.00 0.00 0.00 99 1007.7
20260506171625 13 298 4.8 12.9 0.00 0.00 0.00 99 1007.8
20260506171122 13 251 3.2 8.0 0.00 0.00 0.00 99 1008.4
20260506170619 13 231 4.8 9.7 0.00 0.00 0.00 99 1008.2
20260506170111 13 246 3.2 8.0 0.00 0.00 0.00 99 1008.3
20260506165609 13 222 6.4 6.4 0.00 0.00 0.00 99 1008.4
20260506165105 13 224 0.0 9.7 0.00 0.00 0.00 99 1008.5
20260506164603 13 228 4.8 8.0 0.00 0.00 0.00 99 1008.2
20260506164100 13 264 3.2 8.0 0.00 0.00 0.00 99 1008.6
20260506163554 13 238 3.2 8.0 0.00 0.00 0.00 99 1008.4
20260506163051 13 220 4.8 6.4 0.00 0.00 0.00 99 1008.3
20260506162547 13 245 4.8 6.4 0.00 0.00 0.00 99 1008.5
20260506162045 13 222 3.2 4.8 0.00 0.00 0.00 99 1008.5
20260506161542 13 211 3.2 6.4 0.05 0.00 0.00 99 1008.4
20260506161039 13 266 3.2 6.4 0.05 0.00 0.00 99 1008.5
20260506160536 13 283 4.8 8.0 0.00 0.00 0.00 99 1008.5
20260506160033 13 267 0.0 6.4 0.00 0.00 0.00 99 1008.5
20260506155532 13 14 8.0 11.3 0.00 0.00 0.00 99 1008.7
20260506153703 13 166 0.0 8.0 0.00 0.00 0.00 99 1009.0
20260506153201 13 186 1.6 6.4 0.00 0.00 0.00 99 1008.8
20260506152658 13 308 0.0 4.8 0.00 0.00 0.00 99 1008.9
20260506152155 13 53 1.6 3.2 0.00 0.00 0.00 99 1009.2
20260506151654 13 46 0.0 6.4 0.00 0.00 0.00 98 1009.2
20260506151150 13 111 0.0 4.8 0.00 0.00 0.00 97 1009.4
20260506150647 13 19 3.2 4.8 0.00 0.00 0.00 97 1009.3
20260506150144 13 37 4.8 4.8 0.00 0.00 0.00 96 1009.4
20260506145641 13 242 4.8 8.0 0.00 0.00 0.00 95 1009.1
20260506145138 13 279 3.2 6.4 0.00 0.00 0.00 95 1009.3
20260506144636 13 110 4.8 6.4 0.00 0.00 0.00 95 1009.4
20260506144132 13 106 0.0 6.4 0.00 0.00 0.00 95 1009.2
20260506143630 13 250 3.2 11.3 0.00 0.00 0.00 94 1009.4
20260506143127 13 255 1.6 4.8 0.00 0.00 0.00 94 1009.1
20260506142626 13 261 6.4 8.0 0.00 0.00 0.00 93 1009.4
20260506142123 13 265 4.8 6.4 0.00 0.00 0.00 92 1009.5
20260506141620 14 198 3.2 4.8 0.00 0.00 0.00 91 1009.2
20260506141119 15 262 3.2 6.4 0.00 0.00 0.00 91 1009.1
20260506140616 14 205 4.8 16.1 0.00 0.00 0.00 92 1009.3
20260506140113 14 158 3.2 6.4 0.00 0.00 0.00 92 1009.2
20260506135610 13 190 4.8 14.5 0.00 0.00 0.00 93 1009.2
20260506135106 13 261 8.0 11.3 0.00 0.00 0.00 92 1009.2
20260506134602 13 238 1.6 9.7 0.00 0.00 0.00 93 1009.1
20260506134059 13 214 1.6 4.8 0.00 0.00 0.00 94 1008.9
20260506133556 13 195 1.6 6.4 0.00 0.00 0.00 95 1009.1
20260506133053 13 138 3.2 4.8 0.00 0.00 0.00 95 1009.0
20260506132550 12 284 3.2 6.4 0.00 0.00 0.00 96 1009.1
20260506132047 12 238 0.0 6.4 0.00 0.00 0.00 96 1008.9
20260506131544 12 135 0.0 8.0 0.00 0.00 0.00 97 1009.0
20260506131040 12 174 1.6 8.0 0.00 0.00 0.00 98 1009.1
20260506130537 12 249 1.6 6.4 0.00 0.00 0.00 98 1009.3
20260506130035 12 221 0.0 3.2 0.00 0.00 0.00 99 1009.1
20260506125533 11 80 0.0 4.8 0.00 0.00 0.00 99 1009.5
20260506125031 11 49 0.0 4.8 0.00 0.00 0.00 99 1009.6
20260506124528 11 269 0.0 4.8 0.00 0.00 0.00 99 1009.7
20260506124026 11 191 4.8 6.4 0.00 0.00 0.00 99 1009.7
20260506123523 11 103 1.6 4.8 0.00 0.00 0.00 99 1009.5
20260506123021 11 289 3.2 4.8 0.00 0.00 0.00 99 1009.7
20260506122517 11 248 3.2 8.0 0.00 0.00 0.00 99 1009.8
20260506122016 11 287 0.0 4.8 0.00 0.00 0.00 99 1009.6
20260506121514 11 199 3.2 3.2 0.00 0.00 0.00 99 1009.4
20260506121010 11 236 3.2 6.4 0.00 0.00 0.00 99 1009.5
20260506120508 11 195 3.2 4.8 0.00 0.00 0.00 99 1009.6
20260506120005 11 72 0.0 8.0 0.00 0.00 0.00 99 1009.5
20260506115502 11 223 3.2 4.8 0.00 0.00 0.00 99 1009.4
20260506115001 10 173 0.0 3.2 0.00 0.00 0.00 99 1009.5
20260506114457 10 345 3.2 4.8 0.00 0.00 0.00 99 1009.3
20260506113956 10 203 0.0 3.2 0.00 0.00 0.00 99 1009.2
20260506113453 10 326 0.0 1.6 0.00 0.00 0.00 99 1009.3
20260506112950 10 303 3.2 4.8 0.00 0.00 0.00 99 1009.6
20260506112448 10 269 0.0 4.8 0.00 0.00 0.00 99 1009.5
20260506111945 10 245 1.6 6.4 0.00 0.00 0.00 99 1009.4
20260506111443 10 249 3.2 11.3 0.00 0.00 0.00 99 1009.6
20260506110940 10 17 3.2 6.4 0.00 0.00 0.00 99 1009.7
20260506110438 10 262 1.6 6.4 0.00 0.00 0.00 99 1009.8
20260506105933 10 250 6.4 9.7 0.00 0.00 0.00 99 1009.5
20260506105430 10 269 3.2 6.4 0.00 0.00 0.00 99 1009.6
20260506104928 10 258 0.0 3.2 0.00 0.00 0.00 99 1009.5
20260506104426 10 236 3.2 4.8 0.00 0.00 0.00 99 1009.4
20260506103924 10 164 3.2 14.5 0.00 0.00 0.00 99 1009.5
20260506103421 10 318 4.8 6.4 0.00 0.00 0.00 99 1009.5
20260506102917 10 96 3.2 4.8 0.00 0.00 0.00 99 1009.4
20260506102416 10 309 0.0 6.4 0.00 0.00 0.00 99 1009.5
20260506101913 10 330 3.2 4.8 0.00 0.00 0.00 99 1009.5
20260506101408 10 66 8.0 11.3 0.00 0.00 0.00 99 1009.5
20260506100905 10 0 4.8 6.4 0.00 0.00 0.00 99 1009.3
20260506100404 10 103 1.6 6.4 0.00 0.00 0.00 99 1009.2
20260506095902 10 96 4.8 8.0 0.00 0.00 0.00 99 1009.3
20260506095400 10 30 4.8 6.4 0.00 0.00 0.00 99 1009.3
20260506094856 10 66 3.2 6.4 0.00 0.00 0.00 99 1009.4
20260506094355 10 54 1.6 4.8 0.00 0.00 0.00 99 1009.3
20260506093852 10 65 1.6 4.8 0.00 0.00 0.00 99 1009.2
20260506093350 10 59 4.8 11.3 0.00 0.00 0.00 99 1009.1
20260506092847 10 122 0.0 6.4 0.00 0.00 0.00 99 1009.6
20260506092345 10 63 3.2 8.0 0.00 0.00 0.00 99 1009.4
20260506091841 10 80 3.2 6.4 0.00 0.00 0.00 99 1009.3
20260506091339 10 73 3.2 4.8 0.00 0.00 0.00 99 1009.5
20260506090836 10 350 3.2 4.8 0.00 0.00 0.00 99 1009.4
20260506090335 10 327 1.6 4.8 0.00 0.00 0.00 98 1009.5
20260506085830 10 352 4.8 6.4 0.00 0.00 0.00 98 1009.4
20260506085326 10 0 1.6 6.4 0.00 0.00 0.00 97 1009.4
20260506084823 10 58 0.0 6.4 0.00 0.00 0.00 97 1009.6
20260506084320 10 109 3.2 6.4 0.00 0.00 0.00 96 1009.6
20260506083817 10 31 3.2 6.4 0.00 0.00 0.00 96 1009.5
20260506083314 11 40 4.8 11.3 0.00 0.00 0.00 95 1009.6
20260506082806 10 318 3.2 9.7 0.00 0.00 0.00 95 1009.6
20260506082304 10 341 3.2 3.2 0.00 0.00 0.00 95 1009.8
20260506081759 11 67 3.2 4.8 0.00 0.00 0.00 94 1009.5
20260506081257 10 35 1.6 4.8 0.00 0.00 0.00 94 1009.6
20260506080755 10 67 3.2 3.2 0.00 0.00 0.00 93 1009.7
20260506080250 10 48 3.2 3.2 0.00 0.00 0.00 94 1009.7